Salida, CO

12:15 AM MDT on May 24, 2017 (GMT -0600)
Salida

Weather History for KANK - March, 2013

Change the Weather History Date:

Thursday, March 21, 2013

  Actual Average (KGUC) Record (KGUC)
Temperature  
Mean Temperature 42 °F -  
Max Temperature 51 °F 46 °F 66 °F (2004)
Min Temperature 34 °F 19 °F 12 °F (2014)
Degree Days  
Heating Degree Days 22    
Moisture  
Dew Point 22 °F    
Average Humidity 51    
Maximum Humidity 94    
Minimum Humidity 24    
Precipitation  
Precipitation 0.00 in - - ()
Sea Level Pressure  
Sea Level Pressure 29.82 in    
Wind  
Wind Speed 15 mph (WSW)    
Max Wind Speed 33 mph    
Max Gust Speed 44 mph    
Visibility 9 miles    
Events      
Averages and records for this station are not official NWS values.
T = Trace of Precipitation, MM = Missing Value Source: NWS Daily Summary

Daily Weather History Graph

Daily Weather History Graph

Search for Another Location

Airport or City:

Trip Planner

Search our weather history database for the weather conditions in past years. The results will help you decide how hot, cold, wet, or windy it might be!

Date:

Astronomy

Mar. 21, 2013 Rise Set
Actual Time 7:05 AM MDT 7:17 PM MDT
Civil Twilight 6:39 AM MDT 7:43 PM MDT
Nautical Twilight 6:08 AM MDT 8:14 PM MDT
Astronomical Twilight 5:36 AM MDT 8:46 PM MDT
Moon 1:53 PM MDT (3/21) 3:25 AM MDT (3/21)
Length of Visible Light 13h 04m
Length of Day
12h 11m
Waxing Gibbous, 69% of the Moon is Illuminated
Mar 21
Waxing Gibbous
Mar 27
Full
Apr 2
Last Quarter
Apr 10
New
Apr 18
First Quarter

Hourly Weather History & Observations

Time (MDT) Temp. Windchill Dew Point Humidity Pressure Visibility Wind Dir Wind Speed Gust Speed Precip Events Conditions
12:15 AM 42.4 °F 35.0 °F 24.8 °F 50% 29.94 in 10.0 mi SW 15.0 mph 21.9 mph N/A   Clear
12:35 AM 43.0 °F 34.5 °F 24.4 °F 48% 29.93 in 10.0 mi WSW 19.6 mph 24.2 mph N/A   Clear
12:55 AM 43.2 °F 34.5 °F 24.1 °F 47% 29.92 in 10.0 mi SW 20.7 mph 27.6 mph N/A   Clear
1:15 AM 42.6 °F 34.9 °F 24.6 °F 49% 29.92 in 10.0 mi WSW 16.1 mph 24.2 mph N/A   Clear
1:35 AM 42.4 °F 34.1 °F 23.9 °F 48% 29.91 in 10.0 mi SW 18.4 mph 25.3 mph N/A   Clear
1:55 AM 42.4 °F 34.1 °F 24.3 °F 49% 29.91 in 10.0 mi WSW 18.4 mph 32.2 mph N/A   Clear
2:15 AM 41.7 °F 33.1 °F 24.8 °F 51% 29.90 in 10.0 mi SW 18.4 mph 21.9 mph N/A   Clear
2:35 AM 41.5 °F 33.5 °F 24.8 °F 51% 29.90 in 10.0 mi WSW 16.1 mph - N/A   Scattered Clouds
2:55 AM 42.3 °F 35.1 °F 23.9 °F 48% 29.88 in 10.0 mi WSW 13.8 mph 18.4 mph N/A   Scattered Clouds
3:15 AM 42.6 °F 35.9 °F 23.9 °F 48% 29.88 in 10.0 mi WSW 12.7 mph 25.3 mph N/A   Clear
3:35 AM 41.7 °F 35.6 °F 23.9 °F 49% 29.87 in 10.0 mi WSW 10.4 mph 21.9 mph N/A   Clear
3:55 AM 41.2 °F 35.5 °F 24.3 °F 51% 29.86 in 10.0 mi South 9.2 mph - N/A   Clear
4:15 AM 40.8 °F 33.3 °F 25.0 °F 53% 29.85 in 10.0 mi SW 13.8 mph 19.6 mph N/A   Clear
4:35 AM 41.2 °F 34.5 °F 25.2 °F 53% 29.83 in 10.0 mi SW 11.5 mph 23.0 mph N/A   Clear
4:55 AM 41.0 °F 33.9 °F 26.2 °F 56% 29.83 in 10.0 mi WSW 12.7 mph 20.7 mph N/A   Clear
5:15 AM 41.0 °F 33.1 °F 26.4 °F 56% 29.82 in 10.0 mi SSW 15.0 mph 23.0 mph N/A   Clear
5:35 AM 40.8 °F 32.3 °F 30.2 °F 66% 29.83 in 10.0 mi WSW 17.3 mph 28.8 mph N/A   Scattered Clouds
5:55 AM 38.7 °F 32.4 °F 30.9 °F 74% 29.82 in 10.0 mi West 9.2 mph - N/A   Mostly Cloudy
6:15 AM 39.4 °F 34.5 °F 29.8 °F 69% 29.82 in 10.0 mi SW 6.9 mph - N/A   Mostly Cloudy
6:35 AM 40.5 °F 35.1 °F 29.5 °F 65% 29.82 in 10.0 mi WSW 8.1 mph - N/A   Mostly Cloudy
6:55 AM 38.3 °F 35.9 °F 30.9 °F 75% 29.82 in 10.0 mi East 3.5 mph - N/A   Overcast
7:15 AM 40.5 °F 35.8 °F 30.2 °F 67% 29.80 in 10.0 mi South 6.9 mph - N/A   Overcast
7:35 AM 42.3 °F 39.4 °F 28.4 °F 58% 29.80 in 10.0 mi SSE 4.6 mph - N/A   Overcast
7:55 AM 42.4 °F 37.0 °F 27.9 °F 56% 29.78 in 10.0 mi South 9.2 mph 19.6 mph N/A   Overcast
8:15 AM 42.6 °F 36.3 °F 28.4 °F 57% 29.80 in 10.0 mi SSW 11.5 mph 19.6 mph N/A   Overcast
8:35 AM 39.2 °F 33.0 °F 32.4 °F 76% 29.81 in 10.0 mi SSW 9.2 mph 16.1 mph N/A   Overcast
8:55 AM 39.4 °F 36.1 °F 32.5 °F 76% 29.80 in 10.0 mi SSW 4.6 mph - N/A   Overcast
9:15 AM 39.9 °F 34.5 °F 31.8 °F 73% 29.80 in 10.0 mi SW 8.1 mph - N/A   Mostly Cloudy
9:35 AM 45.3 °F 39.0 °F 29.1 °F 53% 29.78 in 10.0 mi SSW 13.8 mph 21.9 mph N/A   Clear
9:55 AM 46.6 °F - 28.6 °F 50% 29.77 in 10.0 mi SSW 12.7 mph 21.9 mph N/A   Clear
10:15 AM 48.0 °F - 28.9 °F 48% 29.77 in 10.0 mi SW 16.1 mph 21.9 mph N/A   Clear
10:35 AM 50.5 °F - 22.1 °F 33% 29.77 in 10.0 mi West 24.2 mph 41.4 mph N/A   Scattered Clouds
10:55 AM 40.8 °F 32.0 °F 31.3 °F 69% 29.80 in 5.0 mi West 18.4 mph 24.2 mph N/A   Overcast
11:15 AM 39.4 °F 32.3 °F 32.0 °F 75% 29.78 in 7.0 mi WNW 11.5 mph - N/A   Overcast
11:35 AM 41.7 °F 36.7 °F 32.7 °F 70% 29.77 in 4.0 mi NNW 8.1 mph 20.7 mph N/A   Mostly Cloudy
11:55 AM 44.1 °F 39.5 °F 31.8 °F 62% 29.75 in 10.0 mi NNE 8.1 mph - N/A   Scattered Clouds
12:15 PM 46.4 °F 42.4 °F 30.7 °F 54% 29.74 in 10.0 mi West 8.1 mph 16.1 mph N/A   Mostly Cloudy
12:35 PM 51.1 °F - 19.8 °F 29% 29.72 in 10.0 mi West 24.2 mph 31.1 mph N/A   Mostly Cloudy
12:55 PM 42.3 °F 31.0 °F 27.3 °F 56% 29.77 in 2.5 mi West 33.4 mph 43.7 mph N/A   Mostly Cloudy
1:15 PM 39.4 °F 27.3 °F 27.9 °F 63% 29.77 in 2.5 mi WSW 32.2 mph 42.6 mph N/A   Overcast
1:35 PM 35.6 °F 25.5 °F 32.0 °F 87% 29.78 in 0.8 mi WSW 17.3 mph 23.0 mph N/A   Overcast
1:55 PM 34.9 °F 29.0 °F 33.4 °F 94% 29.78 in 0.8 mi SW 6.9 mph - N/A   Overcast
2:15 PM 38.7 °F 30.5 °F 33.8 °F 83% 29.77 in 10.0 mi WSW 13.8 mph 19.6 mph N/A   Mostly Cloudy
2:35 PM 42.1 °F 36.1 °F 34.9 °F 76% 29.75 in 10.0 mi WSW 10.4 mph 17.3 mph N/A   Scattered Clouds
2:55 PM 44.2 °F 35.7 °F 32.0 °F 62% 29.76 in 10.0 mi West 21.9 mph 26.5 mph N/A   Scattered Clouds
3:15 PM 42.3 °F 34.1 °F 33.3 °F 70% 29.77 in 10.0 mi SW 17.3 mph 20.7 mph N/A   Mostly Cloudy
3:35 PM 41.7 °F 33.1 °F 32.5 °F 70% 29.76 in 10.0 mi NW 18.4 mph - N/A   Mostly Cloudy
3:55 PM 38.8 °F 30.4 °F 32.4 °F 78% 29.77 in 10.0 mi North 15.0 mph 23.0 mph N/A   Scattered Clouds
4:15 PM 42.8 °F 39.3 °F 31.5 °F 64% 29.78 in 10.0 mi North 5.8 mph - N/A   Mostly Cloudy
4:35 PM 46.4 °F 39.0 °F 16.3 °F 30% 29.77 in 10.0 mi West 19.6 mph 25.3 mph N/A   Scattered Clouds
4:55 PM 45.1 °F 36.9 °F 14.5 °F 29% 29.78 in 10.0 mi West 21.9 mph 36.8 mph N/A   Scattered Clouds
5:15 PM 43.7 °F 35.0 °F 13.5 °F 29% 29.79 in 10.0 mi West 21.9 mph 29.9 mph N/A   Clear
5:35 PM 43.2 °F 33.8 °F 11.5 °F 28% 29.79 in 10.0 mi West 24.2 mph 38.0 mph N/A   Clear
5:55 PM 42.6 °F 33.5 °F 12.0 °F 29% 29.80 in 10.0 mi West 21.9 mph 29.9 mph N/A   Clear
6:15 PM 41.9 °F 35.9 °F 12.0 °F 30% 29.82 in 10.0 mi West 10.4 mph 28.8 mph N/A   Clear
6:35 PM 41.7 °F 34.4 °F 12.7 °F 31% 29.83 in 10.0 mi NW 13.8 mph 24.2 mph N/A   Clear
6:55 PM 40.5 °F 31.2 °F 12.9 °F 33% 29.83 in 10.0 mi NW 19.6 mph 28.8 mph N/A   Clear
7:15 PM 40.1 °F 31.0 °F 11.7 °F 31% 29.84 in 10.0 mi West 18.4 mph 34.5 mph N/A   Clear
7:35 PM 39.6 °F 29.5 °F 10.9 °F 31% 29.85 in 10.0 mi WSW 21.9 mph 27.6 mph N/A   Clear
7:55 PM 38.8 °F 30.0 °F 10.0 °F 31% 29.86 in 10.0 mi WSW 16.1 mph 21.9 mph N/A   Clear
8:15 PM 38.1 °F 28.1 °F 9.9 °F 31% 29.85 in 10.0 mi WSW 19.6 mph 27.6 mph N/A   Clear
8:35 PM 38.1 °F 26.8 °F 9.1 °F 30% 29.85 in 10.0 mi West 25.3 mph 28.8 mph N/A   Clear
8:55 PM 37.6 °F 28.4 °F 8.6 °F 30% 29.86 in 10.0 mi WSW 16.1 mph 26.5 mph N/A   Clear
9:15 PM 36.7 °F 28.0 °F 8.4 °F 31% 29.87 in 10.0 mi WSW 13.8 mph 24.2 mph N/A   Clear
9:35 PM 36.0 °F 26.7 °F 8.6 °F 32% 29.87 in 10.0 mi WSW 15.0 mph 20.7 mph N/A   Clear
9:55 PM 36.7 °F 26.0 °F 8.1 °F 31% 29.87 in 10.0 mi SW 20.7 mph 28.8 mph N/A   Clear
10:15 PM 36.5 °F 26.7 °F 7.7 °F 30% 29.87 in 10.0 mi SW 17.3 mph 23.0 mph N/A   Clear
10:35 PM 36.9 °F 26.8 °F 6.6 °F 28% 29.87 in 10.0 mi WSW 18.4 mph 31.1 mph N/A   Clear
10:55 PM 36.9 °F 27.5 °F 5.9 °F 28% 29.88 in 10.0 mi WSW 16.1 mph 28.8 mph N/A   Clear
11:15 PM 36.7 °F 26.6 °F 4.8 °F 26% 29.88 in 10.0 mi SW 18.4 mph 26.5 mph N/A   Clear
11:35 PM 37.0 °F 26.7 °F 3.4 °F 24% 29.88 in 10.0 mi SW 19.6 mph 29.9 mph N/A   Clear
11:55 PM 36.7 °F 26.3 °F 3.0 °F 24% 29.88 in 10.0 mi SW 19.6 mph 27.6 mph N/A   Clear